This is the latest recevied weather packets stored in our database for station/object K2ATL. If no packets are shown the sender has not sent any weather packets the latest 1 day(s).
| Time | Temp. | Humidity | Pressure | Rain* | Wind** | Luminosity | Snow |
|---|---|---|---|---|---|---|---|
| 1778035178 | 18.89° C | 51% | 1099.3 hPa | 0 mm | 1.34 m/s, 135° | 0 W/m² | - |
| 1778034875 | 18.89° C | 51% | 1099.3 hPa | 0 mm | 0.45 m/s, 127° | 0 W/m² | - |
| 1778034572 | 18.89° C | 51% | 1099.1 hPa | 0 mm | 1.34 m/s, 128° | 0 W/m² | - |
| 1778034270 | 18.89° C | 51% | 1098.9 hPa | 0 mm | 0.45 m/s, 104° | 0 W/m² | - |
| 1778033967 | 18.89° C | 52% | 1099 hPa | 0 mm | 1.34 m/s, 133° | 0 W/m² | - |
| 1778033664 | 18.89° C | 52% | 1099.2 hPa | 0 mm | 1.34 m/s, 137° | 0 W/m² | - |
| 1778033361 | 18.89° C | 51% | 1099.1 hPa | 0 mm | 2.24 m/s, 144° | 0 W/m² | - |
| 1778033059 | 19.44° C | 51% | 1099.1 hPa | 0 mm | 1.34 m/s, 126° | 0 W/m² | - |
| 1778032756 | 19.44° C | 51% | 1099.1 hPa | 0 mm | 1.34 m/s, 124° | 0 W/m² | - |
| 1778032454 | 19.44° C | 50% | 1099.1 hPa | 0 mm | 2.24 m/s, 135° | 0 W/m² | - |
| 1778032150 | 19.44° C | 50% | 1099 hPa | 0 mm | 1.34 m/s, 144° | 0 W/m² | - |
| 1778031847 | 19.44° C | 50% | 1099.1 hPa | 0 mm | 1.79 m/s, 122° | 0 W/m² | - |
| 1778031544 | 19.44° C | 50% | 1099.1 hPa | 0 mm | 0.89 m/s, 130° | 0 W/m² | - |
| 1778031242 | 19.44° C | 50% | 1099.2 hPa | 0 mm | 1.34 m/s, 135° | 0 W/m² | - |
| 1778030937 | 19.44° C | 49% | 1098.9 hPa | 0 mm | 1.34 m/s, 127° | 0 W/m² | - |
| 1778030634 | 19.44° C | 50% | 1099 hPa | 0 mm | 0.89 m/s, 135° | 0 W/m² | - |
| 1778030332 | 19.44° C | 50% | 1098.9 hPa | 0 mm | 0.89 m/s, 130° | 0 W/m² | - |
| 1778030028 | 19.44° C | 50% | 1098.9 hPa | 0 mm | 0.45 m/s, 116° | 0 W/m² | - |
| 1778029726 | 18.89° C | 52% | 1098.9 hPa | 0 mm | 0.45 m/s, 72° | 0 W/m² | - |
| 1778029424 | 18.89° C | 52% | 1098.6 hPa | 0 mm | 0.45 m/s, 88° | 0 W/m² | - |
| 1778029120 | 18.89° C | 52% | 1098.6 hPa | 0 mm | 0.45 m/s, 81° | 0 W/m² | - |
| 1778028817 | 18.89° C | 52% | 1098.6 hPa | 0 mm | 0.45 m/s, 130° | 0 W/m² | - |
| 1778028513 | 18.89° C | 51% | 1098.6 hPa | 0 mm | 0.45 m/s, 131° | 0 W/m² | - |
| 1778028211 | 18.89° C | 51% | 1098.7 hPa | 0 mm | 1.34 m/s, 131° | 0 W/m² | - |
| 1778027907 | 19.44° C | 51% | 1098.7 hPa | 0 mm | 1.34 m/s, 134° | 0 W/m² | - |
* Rain latest hour (hover to see other rain measurements)
** Current wind speed in m/s (hover to see current wind gust speed)